EHI
2 4 9 11 9 6 5 6 5 4 3 2 1 1 0 0 1 0 1 1 1 0 0 0 1 1 2 3 3 1 0 1 2 2 1 0 0 0 0 0 0 0 0
4 4 6 9 8 5 5 4 4 4 3 2 1 0 0 0 1 0 0 0 0 0 0 0 0 1 3 4 4 2 1 0 1 2 2 1 1 1 0 0 0 0 0
8 6 5 6 5 4 3 3 3 3 3 1 0 0 0 1 1 0 0 0 0 0 1 0 0 1 3 4 5 3 2 1 0 1 2 3 2 2 1 0 0 0 0
10 9 7 4 3 2 2 2 2 1 1 0 0 0 1 1 1 0 0 0 0 0 1 0 0 1 2 3 4 3 3 1 1 1 2 3 3 2 1 0 0 0 0
9 8 6 3 2 1 2 4 3 1 0 0 0 0 1 2 1 0 0 0 0 0 1 0 0 0 1 2 3 3 3 3 3 2 2 3 3 2 1 0 0 0 0
6 5 3 1 1 1 3 5 5 3 1 1 0 0 1 1 0 0 0 0 0 0 0 1 1 2 2 3 3 3 4 5 5 5 4 4 4 3 1 0 0 0 0
5 3 1 1 1 2 3 4 4 2 1 1 0 0 0 0 0 0 0 0 0 0 0 1 3 5 4 3 3 3 3 4 5 6 6 5 5 4 2 0 0 0 0
3 2 2 2 2 2 2 2 1 1 1 1 0 0 0 0 0 0 1 0 0 0 0 1 3 4 4 5 4 3 3 4 4 5 6 6 5 5 3 1 1 0 0
1 1 1 1 2 2 2 2 1 0 1 1 0 0 0 0 0 0 0 0 0 0 0 0 1 1 2 4 4 3 2 3 3 4 5 6 6 5 4 4 3 2 1
0 0 0 0 1 1 1 1 0 0 0 0 0 0 0 0 0 0 0 0 0 0 0 0 0 0 0 1 1 1 1 1 2 2 3 5 7 6 5 5 5 4 3
0 0 0 0 0 0 0 0 0 0 0 0 0 0 0 0 0 0 0 0 0 0 0 0 0 0 0 0 0 0 0 0 0 0 1 3 5 6 6 6 6 6 5
0 0 0 0 0 0 0 0 0 0 0 0 0 0 0 0 0 0 0 0 0 0 0 0 0 0 0 0 0 0 0 0 0 0 0 1 2 4 5 5 7 7 6
0 0 0 0 0 0 0 0 0 0 0 0 0 0 0 0 0 0 0 0 0 0 0 0 0 0 0 0 0 0 0 0 0 0 0 0 0 1 3 4 5 6 6
0 0 0 0 0 0 0 0 0 0 0 0 0 0 0 0 0 0 0 0 0 0 0 0 0 0 0 0 0 0 0 0 0 0 0 0 0 0 1 1 2 3 2
0 0 0 0 0 0 0 0 0 0 0 0 0 0 0 0 0 0 0 0 0 0 0 0 0 0 0 0 0 0 0 0 0 0 0 0 0 0 0 0 0 0 0
0 0 0 0 0 0 0 0 0 0 0 0 0 0 0 0 0 0 0 0 0 0 0 0 0 0 0 0 0 0 0 0 0 0 0 0 0 0 0 0 0 0 0
0 0 0 0 0 0 0 0 0 0 0 0 0 0 0 0 0 0 0 0 0 0 0 0 0 0 0 0 0 0 0 0 0 0 0 0 0 0 0 0 0 0 0
0 0 0 0 0 0 0 0 0 0 0 0 0 0 0 0 0 0 0 0 0 0 0 0 0 0 0 0 0 0 0 0 0 0 0 0 0 0 0 0 0 0 0
0 0 0 0 0 0 0 0 0 0 0 0 0 0 0 0 0 0 0 0 0 0 0 0 0 0 0 0 0 0 0 0 0 0 0 0 0 0 0 0 0 0 0
0 0 0 0 0 0 0 0 0 0 0 0 0 0 0 0 0 0 0 0 0 0 0 0 0 0 0 0 0 0 0 0 0 0 0 0 0 0 0 0 0 0 0
0 0 0 0 0 0 0 0 0 0 0 0 0 0 0 0 0 0 0 0 0 0 0 0 0 0 0 0 0 0 0 0 0 0 0 0 0 0 0 0 0 0 0
0 0 0 0 0 0 0 0 0 0 0 0 0 0 0 0 0 0 0 0 0 0 0 0 0 0 0 0 0 0 0 0 0 0 0 0 0 0 0 0 0 0 0
0 0 0 0 0 0 0 0 0 0 0 0 0 1 1 0 0 0 0 0 0 0 0 0 0 0 0 0 0 0 0 0 0 0 0 0 0 0 0 0 0 0 0
0 0 0 0 0 0 0 0 0 0 0 0 0 1 2 1 0 0 0 0 0 0 0 0 0 0 0 0 0 0 0 0 0 0 0 0 0 0 0 0 0 0 0
0 0 0 0 0 0 0 0 0 0 0 0 0 1 2 1 0 0 0 0 0 0 0 0 0 0 0 0 0 0 0 0 0 0 0 0 0 0 0 0 0 0 0
0 0 0 0 0 0 0 0 0 0 0 0 0 0 1 1 0 0 0 0 0 0 0 0 0 0 0 0 0 0 0 0 0 0 0 0 0 0 0 0 0 0 0
Wind_Speed
3 2 2 2 3 2 3 3 3 3 4 4 4 5 5 5 5 5 2 7 7 8 10 11 12 14 14 14 13 13 13 13 12 11 11 11 11 11 11 11 10 10 10
2 2 2 2 2 2 2 2 3 3 3 3 5 5 5 6 5 5 5 5 9 9 9 11 12 14 15 15 15 14 14 14 13 12 12 11 11 11 11 11 11 11 10
2 2 2 2 1 1 2 3 3 3 4 4 5 6 6 6 6 6 6 5 5 9 11 11 12 14 15 16 16 16 15 14 13 13 13 12 12 12 12 12 11 11 11
2 2 1 1 1 2 2 2 3 3 3 4 4 4 4 4 7 7 6 6 5 5 9 12 12 13 14 16 16 17 16 15 15 15 14 14 13 13 12 12 12 12 11
1 1 0 0 1 1 2 3 1 2 2 3 4 4 4 4 5 7 6 7 6 6 6 8 12 12 14 15 16 17 17 16 16 16 16 16 15 14 14 13 13 13 12
2 1 1 1 1 1 1 1 1 1 3 3 5 4 4 4 5 5 6 6 5 7 8 7 6 9 14 14 15 17 17 17 17 18 18 18 17 16 15 15 14 14 14
2 0 1 1 1 0 1 1 2 2 2 2 4 4 4 5 4 4 4 4 6 6 6 6 6 6 6 14 15 15 17 18 19 18 18 18 18 17 17 16 16 15 15
2 2 2 1 1 0 0 1 2 3 2 1 4 5 4 4 4 2 2 3 3 4 5 6 6 6 6 5 8 15 16 18 19 19 19 19 19 18 18 18 18 17 17
2 3 2 2 1 1 2 1 2 3 3 2 2 5 4 3 2 2 1 2 2 3 3 4 5 6 7 6 6 12 15 16 18 20 20 19 19 19 19 20 19 19 18
3 3 2 2 2 2 2 1 2 2 3 3 1 2 4 5 5 2 2 2 1 3 3 4 4 5 6 6 6 7 10 13 15 18 19 20 20 19 20 20 21 21 20
3 3 3 2 1 1 3 3 2 3 3 4 3 2 2 3 5 6 5 3 3 3 2 3 3 4 4 5 5 5 6 9 11 14 17 19 20 20 20 21 22 23 22
3 3 2 2 1 2 1 1 2 2 3 4 4 4 4 4 4 5 6 6 5 4 4 4 5 3 3 3 4 1 4 7 9 11 13 15 17 19 21 22 23 24 23
3 3 2 1 1 1 1 1 1 2 2 3 4 4 4 4 5 5 7 7 7 6 5 5 4 3 3 2 1 1 5 6 7 9 11 12 14 15 18 20 22 24 23
2 3 1 1 1 1 1 1 2 1 2 3 4 4 5 4 5 5 6 7 8 7 6 5 4 4 3 4 2 4 4 5 6 8 10 11 12 13 14 16 19 20 21
2 2 1 1 0 1 1 2 2 2 2 4 4 3 4 4 4 5 5 6 8 9 8 5 4 4 4 4 2 6 7 2 5 8 10 11 12 12 13 13 15 16 17
2 2 2 1 1 1 2 3 3 1 3 3 3 4 5 5 4 5 5 6 6 8 9 7 6 7 6 8 5 7 8 6 9 10 10 10 11 12 12 13 14 15 16
3 3 2 2 2 2 2 2 4 3 4 4 4 4 5 6 6 6 5 6 6 7 9 9 8 7 7 9 9 8 9 8 8 11 10 10 10 11 12 13 13 14 15
4 4 3 3 3 3 3 3 4 4 4 4 5 5 6 5 5 7 6 7 7 7 9 11 9 9 9 9 9 9 10 8 9 7 10 11 12 12 12 13 13 14 14
5 4 4 4 3 3 4 4 4 5 5 5 6 6 6 6 7 6 7 8 7 7 7 9 10 8 8 8 9 9 11 8 10 8 10 13 13 13 13 13 13 14 14
5 5 4 4 4 4 5 5 5 5 6 6 6 7 7 7 7 8 7 8 8 8 8 9 9 9 8 8 8 9 9 7 8 8 8 7 10 13 14 14 14 15 15
6 5 5 5 5 5 4 4 5 6 6 7 7 8 8 7 6 7 8 8 8 8 8 9 9 9 8 7 8 8 9 8 8 8 8 8 8 9 11 15 16 16 15
6 6 6 6 6 5 3 2 6 8 8 8 8 8 8 9 10 12 13 12 11 11 11 10 10 10 10 10 9 9 10 10 9 7 7 9 8 9 9 10 12 15 16
7 7 7 7 7 5 5 6 8 9 10 9 9 8 8 7 6 9 10 14 15 17 16 13 13 13 12 11 10 12 10 11 11 9 8 10 9 10 9 9 10 13 14
7 7 7 8 8 7 7 8 8 10 11 10 10 10 10 10 9 8 10 11 11 11 12 13 13 13 12 11 10 11 12 12 12 11 10 11 10 10 9 9 10 14 14
7 8 7 8 9 8 8 9 9 9 9 10 10 10 10 11 7 6 10 12 13 12 12 14 14 13 13 12 11 10 11 11 11 10 8 10 10 10 9 10 9 14 16
8 8 8 8 9 10 7 9 9 9 9 9 9 10 11 12 8 8 11 12 13 12 12 10 10 13 15 15 16 14 12 12 11 10 8 8 10 9 9 9 9 8 11
Wind_Direction
229 225 230 235 242 232 224 235 248 240 235 230 238 241 255 264 274 273 194 167 204 221 222 217 209 206 205 203 201 199 198 197 195 191 189 186 183 182 184 182 176 173 173
234 226 220 226 241 252 259 249 241 245 246 242 240 241 251 258 253 260 262 198 200 218 227 227 219 214 211 209 207 205 204 204 200 197 195 192 191 189 190 189 185 182 180
210 229 231 234 236 242 241 248 245 242 238 236 239 240 243 251 254 252 260 265 228 210 217 226 223 218 217 215 212 210 208 208 204 201 200 198 196 194 194 193 190 188 186
188 214 232 232 241 237 235 233 242 245 249 253 248 248 246 241 248 247 248 246 255 250 214 214 222 221 221 221 218 216 212 211 209 207 205 203 201 199 198 197 194 191 189
159 180 348 45 243 242 255 266 231 274 264 269 257 237 242 241 244 248 250 249 247 252 253 207 212 220 222 223 223 221 218 215 214 212 210 208 207 203 201 200 199 195 194
133 139 136 107 275 262 275 302 290 285 285 286 281 272 255 250 241 240 245 247 246 247 249 250 224 217 215 218 221 223 224 223 219 217 216 213 211 208 205 204 202 200 199
114 114 99 112 296 16 340 312 289 257 274 299 277 264 243 236 242 246 244 252 247 250 255 254 252 247 215 210 215 220 224 225 223 220 219 217 215 212 210 208 206 205 203
121 141 65 98 67 82 79 338 302 293 289 299 300 290 270 224 205 221 227 232 252 253 251 248 248 244 249 234 208 212 223 226 224 223 222 220 218 215 214 214 211 208 207
105 72 82 51 45 335 58 3 315 307 308 293 309 308 304 313 328 180 214 237 264 273 266 270 256 252 246 242 232 211 217 224 225 224 223 221 220 217 215 216 216 212 210
108 106 90 72 30 26 52 313 40 318 301 299 257 285 309 331 306 293 214 194 231 260 282 279 278 263 251 247 239 227 214 222 227 228 226 224 222 222 219 218 219 217 214
117 107 93 75 50 29 34 13 11 328 312 315 316 305 290 263 264 285 290 292 273 267 287 285 284 278 272 256 249 239 213 224 232 236 234 230 226 224 223 222 224 223 220
133 109 101 75 51 38 42 5 338 322 335 334 316 308 301 301 305 299 295 290 290 287 291 291 277 276 278 270 265 316 245 238 238 239 240 236 232 228 226 225 224 225 224
145 114 85 64 41 43 9 344 309 338 322 316 299 303 307 304 306 302 298 299 299 290 275 262 261 275 280 283 289 318 246 237 240 238 238 238 235 231 230 228 225 225 225
108 105 115 100 67 346 315 330 285 295 305 295 296 309 296 295 303 298 298 302 297 291 278 278 292 275 298 295 15 288 267 214 236 241 239 237 237 235 234 231 228 225 224
140 145 166 169 196 265 304 283 310 303 298 287 287 272 282 296 287 293 292 292 296 298 297 295 284 294 293 298 316 295 293 249 240 243 241 238 235 232 232 231 228 223 221
150 180 199 209 224 238 255 279 273 286 288 284 293 307 298 294 303 289 287 287 285 288 292 298 299 297 316 306 287 293 286 266 243 237 236 237 235 230 227 227 229 225 220
180 197 204 216 223 234 247 264 287 283 277 287 284 280 281 297 295 297 288 283 281 282 285 290 293 295 292 288 294 291 282 273 258 217 223 231 233 231 228 225 225 223 220
196 201 210 219 231 236 245 260 273 279 278 282 285 286 283 281 281 280 289 287 285 287 283 289 294 292 288 285 281 282 279 273 273 223 211 223 229 231 228 225 224 225 223
204 208 216 229 241 249 250 259 270 276 278 279 280 280 280 282 281 286 286 285 285 279 278 282 285 290 285 283 287 280 276 271 271 251 217 218 223 227 229 228 226 225 225
209 214 224 237 246 251 250 255 262 269 273 274 274 273 272 274 276 283 278 274 276 282 277 274 280 284 283 282 278 278 278 266 265 270 263 248 228 222 226 227 226 225 224
217 220 231 236 240 243 245 263 272 268 270 273 271 267 266 267 280 277 285 292 288 282 283 282 283 285 287 294 290 293 288 285 272 265 264 258 243 236 225 222 224 224 223
223 226 233 241 246 251 135 215 268 278 275 273 274 274 269 242 235 231 244 259 272 277 283 289 287 289 291 291 293 291 288 284 280 271 270 269 261 253 246 240 219 211 216
221 228 236 242 251 245 198 220 237 265 271 273 274 273 273 275 253 259 238 228 240 241 246 265 279 283 288 290 293 289 284 285 285 290 285 275 269 262 255 247 207 202 210
225 232 240 248 253 247 209 223 232 251 264 268 267 266 268 274 268 267 272 268 265 254 240 239 256 266 273 283 284 280 282 278 271 263 259 265 266 263 261 254 208 204 213
230 235 239 247 254 254 220 220 233 262 261 263 264 263 262 266 252 227 258 267 270 271 256 236 243 256 269 272 271 274 271 270 271 269 253 256 264 265 260 255 234 205 212
235 244 244 247 253 259 235 215 222 260 268 270 265 259 242 240 249 221 250 262 268 274 282 278 247 244 250 249 235 242 258 264 269 272 265 255 261 265 265 254 246 228 217